Home   Weather   Morgantown   Past weeks
Flag for USA

Past Weather in Morgantown, West Virginia, USA — Yesterday and Last 2 Weeks

Now
48 °F

Sunny.


Feels Like: 47 °F
Forecast: 70 / 33 °F
Wind: 3 mph from North

Location: Morgantown Municipal-Hart Field

Current Time: Oct 19, 2019 at 11:16:00 am

Latest Report: Oct 19, 2019 at 9:53 am


Visibility: 10 mi

Pressure: 30.05 "Hg

Humidity: 68%

Dew Point: 38 °F

Location of MorgantownLocation

Past Weather in Morgantown — Graph

°F

Morgantown Temperature Yesterday

Maximum temperature yesterday: 56 °F (at 4:53 pm)
Minimum temperature yesterday: 40 °F (at 10:53 pm)
Average temperature yesterday: 47 °F

High & Low Weather Summary for the Past Weeks

 TemperatureHumidityPressure
High77 °F (Oct 11, 2:53 pm)97% (Oct 7, 6:53 am)30.32 "Hg (Oct 7, 6:53 am)
Low33 °F (Oct 19, 6:53 am)20% (Oct 15, 4:53 pm)29.67 "Hg (Oct 16, 9:53 am)
Average56 °F68%30.07 "Hg
* Reported Oct 4 9:53 am — Oct 19 9:53 am, Morgantown. Weather by CustomWeather, © 2019

Note: Actual official high and low records may vary slightly from our data, if they occured in-between our weather recording intervals... More about our weather records

Advertising

Morgantown Weather History for the Previous 24 Hours

Scroll right to see more
 ConditionsComfort  
Time TempWeatherWind HumidityBarometerVisibility
9:53 am
Sat, Oct 19
48 °FSunny.3 mph68%30.05 "Hg10 mi
7:53 am36 °FSunny.No wind89%30.06 "Hg10 mi
6:53 am33 °FClear.No wind96%30.07 "Hg8 mi
5:53 am34 °FClear.No wind97%30.07 "Hg10 mi
4:53 am35 °FFog.No wind96%30.06 "Hg5 mi
3:53 am36 °FClear.No wind92%30.07 "Hg7 mi
2:53 am37 °FClear.No wind93%30.08 "Hg9 mi
1:53 am38 °FClear.No wind90%30.07 "Hg10 mi
12:53 am38 °FClear.5 mph93%30.06 "Hg10 mi
11:53 pm
Fri, Oct 18
40 °FClear.3 mph86%30.04 "Hg10 mi
10:53 pm40 °FClear.3 mph86%30.08 "Hg10 mi
9:53 pm42 °FClear.No wind82%30.09 "Hg10 mi
8:53 pm44 °FClear.No wind76%30.09 "Hg10 mi
7:53 pm47 °FClear.No wind69%30.08 "Hg10 mi
6:53 pm51 °FClear.No wind56%30.06 "Hg10 mi
5:53 pm55 °FSunny.6 mph49%30.06 "Hg10 mi
4:53 pm56 °FSunny.No wind47%30.06 "Hg10 mi
3:53 pm55 °FPassing clouds.No wind47%30.06 "Hg10 mi
2:53 pm54 °FSunny.7 mph47%30.07 "Hg10 mi
1:53 pm53 °FOvercast.6 mph48%30.08 "Hg10 mi
12:53 pm52 °FOvercast.7 mph53%30.09 "Hg10 mi
11:53 am51 °FPartly sunny.6 mph56%30.10 "Hg10 mi
Weather by CustomWeather, © 2019

See weather overview